Location: Newark
(12.4436°N, 0.6167°W)
Time: 19:29:58
(UTC+00:00)

deb Explorer IX - Pass Details

Date: 13 December 2019
Orbit: 548 x 1101 km, 38.8° (Epoch: 24 January)

Event Time Altitude Azimuth Distance (km) Brightness Sun altitude
Rises 11:33:46 0° 208° (SSW) 2,712 ? 54.0°
Reaches altitude 10° 11:36:12 10° 195° (SSW) 1,848 ? 54.1°
Maximum altitude 11:39:47 27° 136° (SE) 1,152 ? 54.2°
Drops below altitude 10° 11:43:41 10° 79° (ENE) 2,022 ? 54.3°
Sets 11:46:27 0° 67° (ENE) 3,025 ? 54.3°
